TEVEL2-9

Last updated on Mon Nov 03 2025 00:03:22 GMT+0000 (Coordinated Universal Time)

1 63237U 25052AD 25306.22927737 .00015567 00000+0 65847-3 0 9996 2 63237 97.4159 197.9831 0005513 210.7223 149.3692 15.23279605 35379
UTC large
Height (km)
Speed (km/s)
/
Latitude / Longitude
Inclination (degrees)
Orbital Period (minutes)
Azimuth
Elevation
Range (km)
Doppler Factor

Next 0 passes for location: London (51.5072 / 0.1276)

Sorry there are no passes over London.